Regional Weather Roundup
Issued by NWS Green Bay, WI

Home | Current Version | Previous Version | Text Only | Print | Product List | Glossary On
Versions: 1 2 3 4 5 6 7 8 9 10 11 12 13 14 15 16 17 18 19 20 21 22 23 24 25 26 27 28 29 30 31 32 33 34 35 36 37 38 39 40 41 42 43 44 45 46 47 48 49 50
000
ASUS43 KGRB 260911
RWRGRB

NORTH-CENTRAL AND NORTHEAST WISCONSIN REGIONAL WEATHER ROUNDUP
NATIONAL WEATHER SERVICE GREEN BAY WI
400 AM CDT MON SEP 26 2016

WIZ005-009-010>012-018-019-261000-
NORTH CENTRAL WISCONSIN

CITY           SKY/WX    TMP DP  RH WIND       PRES   REMARKS
IRONWOOD       LGT RAIN  50  48  93 SW12      29.70F FOG
MANITOWISH WTR CLOUDY    49  47  96 SW12G18   29.73F
ARBOR VITAE    CLOUDY    52  49  89 SW10G18   29.75F
EAGLE RIVER    CLOUDY    49  48  95 W18G25    29.74F
LAND O LAKES   CLOUDY    51  46  83 W7        29.74F
RHINELANDER    CLOUDY    49  46  90 W15       29.78F
PHILLIPS       CLOUDY    49  45  86 SW8       29.77F
ANTIGO         CLOUDY    49  44  83 W16       29.81F
TOMAHAWK       CLOUDY    49  42  77 W6        29.80F
MERRILL        CLOUDY    50  44  79 W10G17    29.82F
$$

WIZ013-073-261000-
NORTHEAST WISCONSIN

CITY           SKY/WX    TMP DP  RH WIND       PRES   REMARKS
IRON MOUNTAIN  CLOUDY    54  48  80 SW9       29.72F
MARINETTE        N/A     56  52  86 VRB6      29.77
OCONTO         CLOUDY    55  47  73 W14G24    29.79S
$$

WIZ017-030-035>037-045-261000-
CENTRAL WISCONSIN

CITY           SKY/WX    TMP DP  RH WIND       PRES   REMARKS
MEDFORD        CLOUDY    50  45  84 W12G18    29.82F
WAUSAU         CLOUDY    51  43  74 W9G20     29.82F
MOSINEE        PTCLDY    48  43  81 SW13      29.85F
MARSHFIELD     CLEAR     50  42  74 W12       29.85F
WISC RAPIDS    CLEAR     52  46  80 W9        29.89F
STEVENS POINT  CLEAR     50  43  77 W15G22    29.86F
WAUPACA        CLOUDY    55  46  71 SW8       29.87S
SHAWANO        CLOUDY    55  45  69 W9G18     29.83F
CLINTONVILLE   NOT AVBL
WAUTOMA        PTCLDY    54  47  77 SW13      29.89F
$$

WIZ038-039-048-051-261000-
FOX VALLEY

CITY           SKY/WX    TMP DP  RH WIND       PRES   REMARKS
NWS GREEN BAY  CLOUDY    56  49  77 SW8       29.84R
APPLETON       CLOUDY    54  41  62 W15       29.84F
OSHKOSH        CLOUDY    57  44  62 W8G17     29.87S
FOND DU LAC    CLOUDY    57  45  64 W9        29.89F
$$

WIZ022-050-052-261000-
EAST CENTRAL WISCONSIN

CITY           SKY/WX    TMP DP  RH WIND       PRES   REMARKS
EPHRAIM        CLOUDY    57  53  85 W9G18     29.75F
WASHINGTON ISL CLOUDY    59  53  81 W14G21    29.73F
STURGEON BAY   CLOUDY    57  51  80 W13       29.79F
MANITOWOC      CLOUDY    58  46  64 MISG      29.85R
SHEBOYGAN      CLOUDY    58  46  64 W12G18    29.87F
$$

LMZ563-521-522-541>543-261000-
LAKESHORE

STATION/POSITION TIME  TEMP    WIND        PRES    VSBY  WAVE
                       AIR SEA DIR/SP/G                  HT/PER
                 (UTC) (F)     (DEG/KT/KT) (MB)    (MI)  (FT/S)
SHEBOYGAN LKSHOR 0900   60     270/ 11/ 14 1011.2F
KEWAUNEE LKSHORE 0800   59     270/ 10/ 15 1009.3F
NORTHPORT PIER   0800   60     270/  7/ 17 1008.1S
N MID LAKE BUOY  0850   62 67  250/ 23/ 27 1006.0F         4/ 6
CHAMBERS ISLAND  0800   60     220/  7/ 18 1008.1F
MENOMINEE LKSHOR 0800   59     240/ 12/ 19 1008.0F
$$



USA.gov is the U.S. government's official web portal to all federal, state and local government web resources and services.